Location: Unspecified
(17.6330°N, 0.0000°E)
Time: 11:11:59
(UTC+00:00)

Courier 1B Rocket - Pass Details

Date: 02 July 2019
Orbit: 920 x 1202 km, 28.3° (Epoch: 16 August)

Event Time Altitude Azimuth Distance (km) Brightness Sun altitude
Rises 20:15:01 0° 219° (SW) 3,954 8.2 -20.8°
Reaches altitude 10° 20:18:03 10° 210° (SSW) 3,033 7.5 -21.4°
Enters shadow 20:24:00 33° 159° (SSE) 1,873 6.0 -22.6°
